星链-5769 (STARLINK-5769 )

导读

STARLINK-5769是美国SpaceX公司星链星座的第二代通信卫星,于2023年2月12日发射升空,作为星链Gen2批次的组网卫星,它继承了星链星座先进的技术设计。该卫星运行在近地轨道,配备增强型相控阵天线与激光星间链路,采用氪离子推进系统实现轨道机动与自主避碰,可提供高速低延迟的全球卫星互联网服务,为星链全球覆盖能力持续赋能,助力星座规模扩展与服务升级。

基本信息
目录编号:
55585
目录名称:
STARLINK-5769
国际标识:
2023-020S
轨道中心:
EARTH
卫星名称:
星链-5769
卫星全名:
星链-5769 (STARLINK-5769 )
卫星状态:
在轨 (已飞行1219 天)
发射日期:
2023-02-12 UTC
国别 :
美国 (US)
星等 :
--
轨道信息
数据来源 国际轨道数据 AOE轨道数据
星历时间 2026-06-15T01:01:14+0800
7小时前
查看轨道信息
2026-06-12T04:00:00+0800
3天前
查看轨道信息
半长轴 6861.196km 6861.196km
偏心率 0.0000315 0.0001262
轨道倾角 43.006° 43.003°
近地点辐角 312.776° 249.939°
升交点赤经 166.632° 182.871°
平近点角 47.306° 116.444°
近地点 482.842km 482.193km
远地点 483.276km 483.925km
周期 94.267分钟 94.267分钟
每日圈数 15.275768 15.275767
详细信息
固有亮度:
5
最大亮度:
2.5
卫星平台:
Starlink v1.5
覆盖范围:
全球
运营商:
太空探索技术公司
运营商所在国:
美国
制造商(研发单位):
太空探索技术公司
制造商所在国:
美国
使用方式:
暂无
卫星简介
星链(Starlink)计划是由太空探索技术公司(SpaceX)提出的一个巨型低轨卫星互联网星座项目,计划在2019年至2024年间在太空搭建由约1.2万颗卫星组成的“星链”网络,其中1584颗将部署在地球上空550千米处的近地轨道,并从2020年开始工作。该卫星仍在工作。
2D轨道图
3D轨道图
轨道高度分析图
轨道倾角分析图
轨道综合分析图
查看轨道综合分析图